Location: Winthrop
(48.4780°N, 120.1850°W)
Time: 20:41:46
(UTC-07:00)

Explorer 7 - Pass Details

Date: 01 February 2023
Orbit: 478 x 657 km, 50.3° (Epoch: 25 March)

Event Time Altitude Azimuth Distance (km) Brightness Sun altitude
Rises 16:12:42 0° 282° (WNW) 2,821 11.2 5.9°
Reaches altitude 10° 16:14:56 10° 284° (WNW) 1,949 10.3 5.6°
Maximum altitude 16:19:26 78° 11° (N) 644 7.2 5.0°
Drops below altitude 10° 16:24:09 10° 99° (E) 2,042 9.3 4.3°
Sets 16:26:32 0° 100° (E) 2,968 10.1 4.0°
